[[{"header":{"parameterUnit":"m.s-1","parameterCategory":1,"la1":30.2991,"la2":30.254,"lo1":-89.0895,"lo2":-89.0444,"dy":0.0017,"dx":0.0017,"nx":28,"ny":28,"refTime":"2025-06-10T21:00:00:Z","depth":0,"parameterNumber":2,"parameterNumberName":"U-component_of_WINDS"},"data":[0,0,0,0,0,0,0,0,0,0,0,0,0,0,0,0,0,0,0,0,0,0,0,0,0,0,0,0,0,0,0,0,0,0,0,0,0,0,0,0,0,0,0,0,0,0,0,0,0,0,0,0,0,0,0,0,0,0,0.5533,0.5533,0,0.5542,0.5542,0.5542,0.5584,0.5585,0.5586,0.5587,0.5595,0.5594,0.5593,0,0,0,0,0,0,0,0,0,0,0,0,0,0.555,0.5549,0.5533,0.5533,0.5533,0.5542,0.5542,0.5542,0.5584,0.5585,0.5587,0.5588,0.5595,0.5594,0.5593,0,0,0,0,0,0,0,0,0,0,0,0,0,0.5549,0.5549,0.5533,0.5555,0.5557,0.5542,0.5542,0.5542,0.5584,0.5585,0.5587,0.5588,0.5595,0.5594,0.5593,0.5557,0,0,0.559,0.5589,0,0,0,0,0,0,0,0,0.5549,0.5548,0.5552,0.5554,0.5556,0.5564,0.5551,0.5547,0.5584,0.5574,0.5587,0.5589,0.5583,0.5583,0.5582,0.5557,0.5558,0.559,0.5589,0.5589,0.5588,0,0,0,0,0,0,0,0.5549,0.5548,0.5537,0.5552,0.5554,0.5564,0.5566,0.5551,0.557,0.5575,0.5578,0.5578,0.5584,0.5582,0.5582,0.5558,0.559,0.5589,0.5588,0.5588,0.5505,0.5503,0,0,0,0,0,0,0.5546,0.5548,0.5536,0.5537,0.5556,0.5563,0.5564,0.556,0.557,0.5573,0.5577,0.558,0.5584,0.5583,0.5582,0.5541,0.5589,0.5588,0.5587,0.5506,0.5504,0.5503,0,0,0,0,0,0,0.5547,0.5545,0.5536,0.5543,0.5543,0.5561,0.5555,0.5559,0.5557,0.5572,0.5576,0.5572,0.5585,0.5584,0.5563,0.5542,0.5587,0.5586,0.5508,0.5506,0.5504,0.5457,0,0,0,0,0,0,0.5547,0.5545,0.5531,0.5543,0.5542,0.5517,0.5554,0.5558,0.5555,0.556,0.5568,0.5571,0.5586,0.5565,0.5562,0.5541,0.5585,0.551,0.5507,0.5504,0.5461,0.5454,0.5448,0,0,0,0,0,0.5547,0.5517,0.553,0.5529,0.5526,0.5515,0.5515,0.5534,0.5553,0.554,0.555,0.557,0.5545,0.5562,0.556,0.5538,0.5512,0.5508,0.5505,0.5464,0.5455,0.5448,0,0,0,0,0,0,0.5501,0.5519,0.5534,0.5507,0.5509,0.5522,0.5506,0.5524,0.552,0.5524,0.5547,0.5549,0.5525,0.553,0.5549,0.5504,0.5532,0.5527,0.5501,0.5493,0.5487,0.5486,0.5584,0,0,0,0,0,0.5488,0.5479,0.5494,0.5469,0.547,0.5487,0.5483,0.5498,0.5501,0.5502,0.5511,0.5513,0.5505,0.55,0.5494,0.5462,0.5464,0.5446,0.5439,0.5434,0.543,0.5414,0.5406,0.5491,0.5491,0.5491,0,0,0.5461,0.5469,0.5461,0.546,0.5464,0.5453,0.5488,0.5475,0.5467,0.55,0.5481,0.5487,0.5491,0.5465,0.5454,0.5468,0.5407,0.5429,0.5425,0.5424,0.5409,0.5401,0.5394,0.5489,0.5489,0.549,0,0,0.5405,0.5411,0.539,0.5394,0.5399,0.5412,0.5407,0.5418,0.5423,0.5405,0.543,0.5421,0.5407,0.5409,0.5408,0.5355,0.5373,0.5352,0.5317,0.5301,0.5294,0.5289,0.5269,0.5262,0.5348,0.5348,0.5348,0,0.537,0.5355,0.5377,0.5363,0.5361,0.5392,0.5372,0.5374,0.5377,0.5375,0.5391,0.5376,0.538,0.5355,0.5342,0.5341,0.5336,0.5351,0.5294,0.5288,0.5283,0.5265,0.5257,0.5345,0.5346,0.5346,0.5346,0,0.5311,0.5301,0.5284,0.5287,0.5284,0.5266,0.5285,0.5279,0.5295,0.5305,0.5286,0.5293,0.5289,0.5285,0.5299,0.5262,0.527,0.529,0.5318,0.5272,0.5255,0.5248,0.5342,0.5343,0.5343,0.5344,0,0,0.5225,0.5243,0.5236,0.5238,0.5247,0.5239,0.5223,0.5221,0.5215,0.5216,0.5203,0.5192,0.5211,0.521,0.5224,0.5211,0.5168,0.5232,0.5232,0.5219,0.5127,0.5112,0.5103,0.5181,0.5179,0.5178,0.5127,0,0.5172,0.5146,0.5167,0.5137,0.5128,0.5158,0.5144,0.5148,0.5157,0.5151,0.5161,0.5153,0.5178,0.5178,0.5165,0.5175,0.5149,0.518,0.5168,0.5167,0.5165,0.5095,0.5078,0.5029,0.512,0.5119,0.5118,0,0.5106,0.5106,0.5075,0.5088,0.5084,0.5072,0.5071,0.5064,0.507,0.5078,0.5077,0.5096,0.5081,0.511,0.5089,0.511,0.5106,0.5111,0.5109,0.5108,0.5139,0.5091,0.5013,0.5005,0.5108,0.5109,0.511,0,0.5046,0.5038,0.5019,0.502,0.5034,0.5024,0.5029,0.5036,0.5034,0.5033,0.5032,0.5029,0.5027,0.5025,0.5042,0.5061,0.5019,0.5049,0.5025,0.5024,0.5014,0.5014,0.4934,0.5013,0.5013,0.5013,0.5013,0,0.4984,0.4964,0.4993,0.4981,0.4959,0.4983,0.4961,0.497,0.4976,0.4966,0.4992,0.4982,0.5006,0.4998,0.5012,0.4993,0.4992,0.4998,0.5001,0.4995,0.4994,0.4992,0.4996,0.5011,0.5012,0.5012,0.5012,0,0.4912,0.4931,0.4912,0.4928,0.4931,0.4915,0.4927,0.4917,0.4929,0.4916,0.4915,0.4933,0.4926,0.4944,0.4938,0.4948,0.492,0.493,0.4918,0.4921,0.4895,0.4897,0.481,0.48,0.4886,0.4886,0.4885,0,0.4871,0.4857,0.4871,0.4867,0.4871,0.4863,0.4861,0.4884,0.4881,0.4887,0.4875,0.487,0.4867,0.4854,0.4867,0.4863,0.4872,0.4842,0.4872,0.4866,0.4871,0.4871,0.487,0.4835,0.4834,0.4834,0.4833,0,0.4796,0.4806,0.4802,0.4802,0.4799,0.4799,0.4801,0.4796,0.4821,0.4815,0.4809,0.4807,0.4802,0.4797,0.4796,0.4801,0.482,0.4824,0.4818,0.481,0.4804,0.4807,0.4901,0.4825,0.4826,0.4827,0.4827,0.4827,0.4738,0.4727,0.4735,0.473,0.4735,0.4736,0.4728,0.4739,0.4734,0.4733,0.4747,0.4737,0.4744,0.4745,0.4748,0.474,0.4754,0.4745,0.4743,0.474,0.4736,0.4806,0.4741,0.4741,0.4741,0.4741,0.4741,0,0.4663,0.467,0.4666,0.4669,0.4665,0.4686,0.4689,0.4684,0.4676,0.4681,0.4678,0.467,0.4665,0.4678,0.4675,0.4666,0.4675,0.4665,0.4665,0.4666,0.4724,0.4729,0.4658,0.4658,0.4658,0.4658,0.4658,0.4658,0.4624,0.4606,0.4617,0.4602,0.461,0.4601,0.4602,0.4603,0.4607,0.4598,0.4594,0.4603,0.4611,0.4609,0.4605,0.4609,0.4607,0.4593,0.4599,0.4653,0.4662,0.4669,0.4674,0.4592,0.4592,0.4542,0.4541,0.4541]},{"header":{"parameterUnit":"m.s-1","parameterCategory":1,"la1":30.2991,"la2":30.254,"lo1":-89.0895,"lo2":-89.0444,"dy":0.0017,"dx":0.0017,"nx":28,"ny":28,"refTime":"2025-06-10T21:00:00:Z","depth":0,"parameterNumber":3,"parameterNumberName":"V-component_of_WINDS"},"data":[0,0,0,0,0,0,0,0,0,0,0,0,0,0,0,0,0,0,0,0,0,0,0,0,0,0,0,0,0,0,0,0,0,0,0,0,0,0,0,0,0,0,0,0,0,0,0,0,0,0,0,0,0,0,0,0,0,0,1.9602,1.9604,0,1.9803,1.9805,1.9807,1.989,1.989,1.9889,1.9889,2.0091,2.0097,2.0102,0,0,0,0,0,0,0,0,0,0,0,0,0,1.9282,1.9288,1.9602,1.9604,1.9607,1.9802,1.9805,1.9808,1.989,1.989,1.9889,1.9889,2.0089,2.0096,2.0103,0,0,0,0,0,0,0,0,0,0,0,0,0,1.9446,1.9289,1.9601,1.9672,1.968,1.9802,1.9805,1.9809,1.989,1.989,1.9889,1.9889,2.0087,2.0095,2.0104,2.017,0,0,2.013,2.0134,0,0,0,0,0,0,0,0,1.9436,1.9457,1.9659,1.9667,1.9676,1.9821,1.9767,1.993,1.9891,1.981,1.9889,1.9888,2.0001,2.0017,2.0056,2.0179,2.0188,2.0131,2.0136,2.014,2.0142,0,0,0,0,0,0,0,1.9425,1.9449,1.9681,1.9661,1.9672,1.9691,1.9713,1.9798,1.9907,1.9817,1.9824,1.9847,2.0006,2.0047,2.0061,2.0191,2.0131,2.0138,2.0144,2.0147,2.0373,2.0374,0,0,0,0,0,0,1.9403,1.9439,1.9675,1.9687,1.9552,1.9697,1.9722,1.9775,1.9906,1.9926,1.9847,1.985,2.0033,2.0051,2.0069,2.0152,2.014,2.0148,2.0153,2.0372,2.0373,2.0374,0,0,0,0,0,0,1.9395,1.9423,1.9667,1.9565,1.9597,1.9703,1.9762,1.9779,1.9821,1.9929,1.9948,1.987,2.0033,2.0056,2.0143,2.016,2.0152,2.016,2.0371,2.0372,2.0373,2.0321,0,0,0,0,0,0,1.9386,1.942,1.9448,1.9565,1.9603,1.974,1.9763,1.9784,1.9836,1.9842,1.9955,1.9973,2.0034,2.013,2.0152,2.0172,2.0166,2.037,2.0372,2.0373,2.0321,2.032,2.0319,0,0,0,0,0,1.9374,1.9425,1.9449,1.9477,1.964,1.9741,1.9762,1.9833,1.9837,1.9865,1.9933,1.997,2.0154,2.0138,2.0163,2.0187,2.0369,2.0371,2.0373,2.0322,2.032,2.0319,0,0,0,0,0,0,1.9308,1.9442,1.947,1.9561,1.9639,1.9755,1.9793,1.9829,1.9907,1.9909,1.9991,2.0016,2.0095,2.0149,2.0129,2.0255,2.0264,2.0271,2.0217,2.0216,2.0215,2.02,2.0174,0,0,0,0,0,1.9303,1.9376,1.9489,1.9558,1.9595,1.9686,1.9733,1.978,1.9864,1.9897,1.9972,2.005,2.0125,2.0174,2.0249,2.0329,2.0353,2.0357,2.0355,2.0354,2.0359,2.0402,2.0404,2.038,2.038,2.038,0,0,1.9296,1.9378,1.9419,1.9546,1.9612,1.9683,1.9714,1.9788,1.9841,1.9908,1.9995,2.0051,2.0143,2.0226,2.0266,2.0274,2.037,2.0356,2.0354,2.0361,2.0404,2.0406,2.0408,2.0381,2.0381,2.0381,0,0,1.9318,1.9388,1.9452,1.9517,1.9616,1.9676,1.969,1.98,1.9841,1.9929,1.998,2.0041,2.017,2.0233,2.0282,2.0321,2.0357,2.0343,2.0337,2.0378,2.0379,2.0381,2.0394,2.0398,2.0348,2.0348,2.0348,0,1.9296,1.9406,1.948,1.9551,1.9604,1.9667,1.9731,1.9789,1.9907,1.9941,1.9948,2.0109,2.0176,2.0272,2.0281,2.0319,2.0336,2.0332,2.0373,2.0376,2.0379,2.0392,2.0397,2.0346,2.0346,2.0346,2.0346,0,1.9373,1.9448,1.9487,1.9599,1.9656,1.9723,1.9804,1.9852,1.9893,1.995,2.0036,2.0118,2.021,2.0236,2.0277,2.0337,2.0338,2.0358,2.0369,2.0378,2.0391,2.0397,2.0342,2.0343,2.0344,2.0344,0,0,1.9362,1.9511,1.9525,1.9575,1.9686,1.9745,1.9812,1.9902,1.9941,2.0018,2.0075,2.018,2.0198,2.0253,2.0301,2.0336,2.0359,2.0352,2.0355,2.0349,2.0428,2.0412,2.0417,2.0382,2.0384,2.0385,2.0419,0,1.9398,1.9524,1.959,1.9687,1.9755,1.9813,1.9871,1.9944,1.9999,2.0062,2.0122,2.0195,2.0214,2.0247,2.0284,2.0348,2.0376,2.0347,2.0434,2.0436,2.041,2.0424,2.0409,2.0439,2.0425,2.0426,2.0427,0,1.9459,1.9536,1.9639,1.9739,1.977,1.9822,1.9907,1.9968,2.005,2.0087,2.0146,2.0192,2.0262,2.0266,2.0361,2.034,2.0379,2.0415,2.0418,2.0429,2.0433,2.0436,2.045,2.0454,2.0436,2.0435,2.0435,0,1.9439,1.9568,1.9645,1.9687,1.9806,1.984,1.9891,1.9973,2.0021,2.0095,2.0127,2.0207,2.0251,2.031,2.0375,2.0373,2.0463,2.0474,2.0494,2.0492,2.0512,2.051,2.0532,2.0536,2.0536,2.0536,2.0536,0,1.9473,1.9533,1.9638,1.9685,1.9753,1.9826,1.9891,1.9946,2.0017,2.0075,2.0129,2.0181,2.0264,2.0325,2.0376,2.0446,2.0465,2.0495,2.0508,2.0491,2.0487,2.0519,2.0518,2.0537,2.0537,2.0537,2.0536,0,1.9463,1.9535,1.9624,1.9728,1.9756,1.9801,1.989,1.9936,1.9992,2.0063,2.0084,2.0171,2.0246,2.0316,2.0415,2.0449,2.0519,2.0536,2.0492,2.0499,2.0515,2.0512,2.0559,2.0568,2.0564,2.0564,2.0564,0,1.948,1.9528,1.9637,1.968,1.9729,1.9798,1.9847,1.9919,1.9968,2.0062,2.0097,2.0176,2.0243,2.0359,2.0429,2.0504,2.0523,2.0534,2.0535,2.0515,2.0523,2.0519,2.0523,2.0533,2.0533,2.0532,2.0532,0,1.9502,1.9534,1.9605,1.9686,1.9743,1.9811,1.988,1.9911,1.9995,2.0047,2.0124,2.0176,2.0276,2.0353,2.0436,2.0485,2.0522,2.0531,2.0539,2.0523,2.0495,2.0509,2.0488,2.053,2.053,2.053,2.0531,2.0531,1.9506,1.955,1.9633,1.9708,1.9767,1.9829,1.9878,1.9938,2.0005,2.0093,2.0131,2.0208,2.0285,2.04,2.0448,2.0508,2.0517,2.0529,2.0533,2.0535,2.0531,2.0484,2.0523,2.0524,2.0524,2.0524,2.0524,0,1.9529,1.9585,1.9653,1.9748,1.9806,1.9835,1.9912,1.9958,2.0026,2.0095,2.0159,2.0246,2.0319,2.0394,2.0471,2.0504,2.0522,2.0522,2.052,2.0531,2.0519,2.0504,2.0505,2.0505,2.0505,2.0505,2.0505,2.0505,1.9549,1.9624,1.9666,1.9769,1.9824,1.9902,1.9942,1.9999,2.0054,2.0149,2.0211,2.0259,2.033,2.0411,2.0479,2.0498,2.0524,2.0518,2.0542,2.0531,2.0532,2.0533,2.0519,2.0523,2.0523,2.0549,2.0549,2.055]}]]